Location: Nairn
(57.5833°N, 3.8667°W)
Time: 02:16:25
(UTC+00:00)

Vanguard 1 Rocket - Pass Details

Date: 03 December 2020
Orbit: 655 x 4221 km, 34.3° (Epoch: 20 January)

Event Time Altitude Azimuth Distance (km) Brightness Sun altitude
Exits shadow 23:55:15 14° 108° (ESE) 6,428 11.5 -54.6°
Drops below altitude 10° 23:57:48 10° 102° (ESE) 6,639 11.6 -54.7°
Sets 00:03:24 0° 92° (E) 7,225 12.0 -54.7°
